Location: Krasnoyarskiy Pitomnik
(51.1333°N, 71.6167°E)
Time: 02:16:15
(UTC+00:00)

Transit 4A - All Passes

Search period start: 22 April 2024 00:00
Search period end: 02 May 2024 00:00
Orbit: 871 x 972 km, 66.8° (Epoch: 21 April)

Date Brightness Start Highest point End Pass type
(mag) Time Alt. Az. Time Alt. Az. Time Alt. Az.
22 Apr - 06:43:04 10° SSE 06:48:03 28° ESE 06:52:57 10° NE daylight
22 Apr - 08:28:00 10° SW 08:33:57 69° NW 08:39:50 10° NE daylight
22 Apr - 10:16:34 10° W 10:21:20 24° NNW 10:26:03 10° NNE daylight
22 Apr - 12:06:01 10° NW 12:09:48 17° N 12:13:34 10° NE daylight
22 Apr - 13:53:13 10° NNW 13:58:09 27° NNE 14:03:05 10° E daylight
22 Apr - 15:39:25 10° NW 15:45:17 84° NE 15:51:11 10° SE visible
22 Apr - 17:26:42 10° WNW 17:30:57 21° WSW 17:35:14 10° SSW visible
23 Apr - 06:51:24 10° S 06:56:54 39° ESE 07:02:18 10° NE daylight
23 Apr - 08:37:19 10° WSW 08:43:07 52° NW 08:48:52 10° NNE daylight
23 Apr - 10:26:22 10° WNW 10:30:47 21° NNW 10:35:10 10° NNE daylight
23 Apr - 12:15:27 10° NW 12:19:20 18° N 12:23:13 10° NE daylight
23 Apr - 14:02:16 10° NNW 14:07:30 33° NE 14:12:44 10° E daylight
23 Apr - 15:48:31 10° NW 15:54:20 73° WSW 16:00:11 10° SSE visible
23 Apr - 17:36:37 10° WNW 17:39:41 15° WSW 17:42:46 10° SW visible
24 Apr - 07:00:01 10° SSW 07:05:49 54° ESE 07:11:31 10° NE daylight
24 Apr - 08:46:46 10° WSW 08:52:21 41° NW 08:57:52 10° NNE daylight
24 Apr - 10:36:10 10° WNW 10:40:17 19° NNW 10:44:23 10° NNE daylight
24 Apr - 12:24:46 10° NNW 12:28:52 19° NNE 12:32:58 10° ENE daylight
24 Apr - 14:11:17 10° NNW 14:16:48 41° NE 14:22:18 10° ESE daylight
24 Apr - 15:57:40 10° NW 16:03:19 53° WSW 16:08:59 10° SSE visible
25 Apr - 05:26:07 10° SE 05:29:25 15° ESE 05:32:41 10° ENE daylight
25 Apr - 07:08:51 10° SSW 07:14:48 74° ESE 07:20:40 10° NE daylight
25 Apr - 08:56:21 10° W 09:01:39 33° NW 09:06:54 10° NNE daylight
25 Apr - 10:45:55 10° NW 10:49:49 18° N 10:53:42 10° NE daylight
25 Apr - 12:33:59 10° NNW 12:38:22 21° NNE 12:42:45 10° ENE daylight
25 Apr - 14:20:19 10° NNW 14:26:01 53° NE 14:31:45 10° ESE daylight
25 Apr - 16:06:53 10° NW 16:12:13 38° WSW 16:17:35 10° S visible
26 Apr - 05:33:42 10° SSE 05:38:09 22° ESE 05:42:32 10° ENE daylight
26 Apr - 07:17:52 10° SW 07:23:50 83° NW 07:29:45 10° NE daylight
26 Apr - 09:06:02 10° W 09:11:00 27° NNW 09:15:57 10° NNE daylight
26 Apr - 10:55:35 10° NW 10:59:22 17° N 11:03:08 10° NE daylight
26 Apr - 12:43:06 10° NNW 12:47:49 24° NNE 12:52:31 10° E daylight
26 Apr - 14:29:20 10° NW 14:35:11 69° NE 14:41:02 10° SE daylight
26 Apr - 16:16:15 10° NW 16:21:03 27° WSW 16:25:54 10° SSW visible
27 Apr - 05:41:49 10° S 05:46:57 31° ESE 05:52:01 10° NE daylight
27 Apr - 07:27:04 10° SW 07:32:57 63° NW 07:38:47 10° NE daylight
27 Apr - 09:15:47 10° WNW 09:20:26 23° NNW 09:25:02 10° NNE daylight
27 Apr - 11:05:07 10° NW 11:08:55 17° N 11:12:42 10° NE daylight
27 Apr - 12:52:11 10° NNW 12:57:13 29° NNE 13:02:15 10° E daylight
27 Apr - 14:38:24 10° NW 14:44:16 89° SW 14:50:09 10° SE daylight
27 Apr - 16:25:51 10° WNW 16:29:50 19° WSW 16:33:50 10° SSW visible
28 Apr - 05:50:14 10° S 05:55:49 43° ESE 06:01:19 10° NE daylight
28 Apr - 07:36:24 10° WSW 07:42:08 48° NW 07:47:49 10° NNE daylight
28 Apr - 09:25:34 10° WNW 09:29:53 20° NNW 09:34:10 10° NNE daylight
28 Apr - 11:14:31 10° NNW 11:18:27 18° N 11:22:23 10° NE daylight
28 Apr - 13:01:13 10° NNW 13:06:33 35° NE 13:11:53 10° ESE daylight
28 Apr - 14:47:30 10° NW 14:53:17 66° WSW 14:59:06 10° SSE daylight
28 Apr - 16:36:00 10° WNW 16:38:32 13° WSW 16:41:05 10° SW visible
29 Apr - 04:17:46 10° ESE 04:19:35 11° E 04:21:25 10° E daylight
29 Apr - 05:58:55 10° SSW 06:04:45 60° ESE 06:10:31 10° NE daylight
29 Apr - 07:45:54 10° WSW 07:51:23 38° NW 07:56:49 10° NNE daylight
29 Apr - 09:35:22 10° NW 09:39:23 19° NNW 09:43:24 10° NNE daylight
29 Apr - 11:23:48 10° NNW 11:27:58 20° NNE 11:32:09 10° ENE daylight
29 Apr - 13:10:14 10° NNW 13:15:49 44° NE 13:21:24 10° ESE daylight
29 Apr - 14:56:40 10° NW 15:02:14 48° WSW 15:07:51 10° S daylight
30 Apr - 04:24:35 10° SE 04:28:16 17° ESE 04:31:56 10° ENE daylight
30 Apr - 06:07:47 10° SSW 06:13:45 81° SE 06:19:37 10° NE daylight
30 Apr - 07:55:30 10° W 08:00:42 31° NNW 08:05:52 10° NNE daylight
30 Apr - 09:45:05 10° NW 09:48:55 17° N 09:52:45 10° NE daylight
30 Apr - 11:32:58 10° NNW 11:37:27 22° NNE 11:41:56 10° ENE daylight
30 Apr - 13:19:16 10° NNW 13:25:01 57° NE 13:30:48 10° SE daylight
30 Apr - 15:05:56 10° NW 15:11:07 34° WSW 15:16:21 10° S visible
01 May - 04:32:21 10° SSE 04:37:02 24° ESE 04:41:38 10° ENE daylight
01 May - 06:16:52 10° SW 06:22:49 76° NW 06:28:41 10° NE daylight
01 May - 08:05:12 10° W 08:10:04 26° NNW 08:14:55 10° NNE daylight
01 May - 09:54:43 10° NW 09:58:28 17° N 10:02:14 10° NE daylight
01 May - 11:42:04 10° NNW 11:46:52 26° NNE 11:51:42 10° E daylight
01 May - 13:28:18 10° NW 13:34:09 75° NE 13:40:02 10° SE daylight
01 May - 15:15:21 10° WNW 15:19:57 24° WSW 15:24:33 10° SSW visible
